GALAXY 13 (HORIZONS-1)

Last updated on Wed May 14 2025 00:02:41 GMT+0000 (Coordinated Universal Time)

1 27954U 03044A 25133.54960222 .00000150 00000+0 00000+0 0 9996 2 27954 0.3852 90.1723 0001962 317.1149 232.1128 1.00271490 42563
UTC large
Height (km)
Speed (km/s)
/
Latitude / Longitude
Inclination (degrees)
Orbital Period (minutes)
Azimuth
Elevation
Range (km)
Doppler Factor

Next 0 passes for location: London (51.5072 / 0.1276)

Sorry there are no passes over London.